Startseite
Über Mich
AHP4
Galerie
Sehschlangen
Tourenbuch
Bookmarks
Elektronik
Bewertung
Geschichten
[Tagesmessung] [Jahreswerte] [Information]

Messwerte vom 09.06.2022

Die letzten Messwerte von 23:58:48 Uhr:
KategorieMesswert
Temperatur [°C]13
Luftdruck [mBar]1002
Sonneneinstrahlung0
Wind [km/h]0 aus Südost
Niederschlag [l/m²]0
rel.Luftfeucht.87.3%
CO2 [ppm]536

Diagramme
Messwerte vom 09.06.2022
Tagesaggregation
KategorieMinimumMaximumSchnittSumme
Temperatur [°C]132718.1958
Luftdruck [mBar]9911003995.7875
Sonneneinstrahlung248143.1396
Wind [km/h]16
rF [%]4096.676.55
Niederschlag [l/m²]0
CO2 [ppm]418813608.7
Einordnung alsVegetationstag
Sommertag

Messungen an benachbarten Tagen: Zur Jahresaggregation 2022
Tabelle aller Messwerte
UhrzeitTemperatur [°C]Luftdruck [mBar]SonneWind [km/h]RichtungRegen [l/m²]rF [%]CO2 [ppm]
00:01:49 16 991 0 0 W 0 82.7 512
00:04:46 16 991 0 1 S 0 83 509
00:07:48 16 991 0 3 SO 0 83.2 515
00:10:46 16 991 0 2 SO 0 83.1 521
00:13:47 16 991 0 1 SW 0 83.1 527
00:16:47 16 991 0 2 SO 0 83.6 533
00:19:48 16 991 0 0 S 0 83.7 536
00:22:44 16 991 0 0 W 0 83.7 536
00:25:46 16 991 0 1 SO 0 84 527
00:28:46 16 991 0 0 S 0 83.8 524
00:31:48 16 991 0 1 SO 0 84.1 527
00:34:47 16 991 0 2 SW 0 84.1 537
00:37:48 16 991 0 3 SW 0 84.5 538
00:40:47 16 991 0 3 S 0 84.4 539
00:43:47 16 991 0 1 SW 0 84.2 542
00:46:45 16 991 0 1 S 0 83.8 547
00:49:48 16 991 0 2 SO 0 84.3 550
00:52:48 16 991 0 3 S 0 84.3 559
00:55:47 16 991 0 0 S 0 84.4 562
00:58:44 16 991 0 1 S 0 84.7 563
01:01:46 16 991 0 1 S 0 85.6 568
01:04:46 15 991 0 0 O 0 86 574
01:07:46 15 991 0 0 S 0 86.8 571
01:10:47 15 991 0 0 S 0 87.1 577
01:13:47 15 991 0 0 NW 0 87.4 578
01:16:46 15 991 0 0 S 0 87.2 586
01:19:45 15 991 0 1 SO 0 87.4 582
01:22:47 15 991 0 0 S 0 87.7 594
01:25:46 15 991 0 0 SW 0 87.8 597
01:28:48 15 991 0 0 SW 0 88.2 595
01:31:46 15 991 0 1 SO 0 88.3 597
01:34:48 15 991 0 0 S 0 88.8 603
01:37:46 15 991 0 1 NW 0 89.1 603
01:40:46 15 991 0 2 SW 0 89.2 607
01:43:46 15 991 0 1 S 0 89.5 610
01:46:45 15 991 0 1 S 0 89.4 612
01:49:45 15 991 0 2 S 0 89.4 615
01:52:49 15 991 0 2 SW 0 89.9 615
01:55:45 15 992 0 5 S 0 90 617
01:58:47 15 991 0 3 SW 0 90 627
02:01:47 15 991 0 1 SW 0 90.1 627
02:04:48 15 991 0 2 S 0 90.2 620
02:07:47 15 991 0 2 S 0 90.4 627
02:10:46 15 991 0 2 S 0 90.7 626
02:13:46 15 991 0 1 S 0 90.9 633
02:16:49 15 991 0 3 NW 0 90.9 637
02:19:46 15 991 0 3 S 0 91 640
02:22:47 15 991 0 0 SW 0 91 641
02:25:48 15 991 0 1 SW 0 90.9 645
02:28:47 15 991 0 2 S 0 90.8 651
02:31:45 15 991 0 2 S 0 91 650
02:34:46 15 991 0 3 S 0 91.1 646
02:37:47 15 991 0 0 S 0 90.8 654
02:40:45 15 991 0 0 S 0 90.5 647
02:43:48 15 991 0 1 S 0 90.8 650
02:46:48 15 991 0 0 NW 0 91 648
02:49:49 15 991 0 0 SW 0 90.9 658
02:52:45 15 991 0 1 W 0 91 656
02:55:45 15 991 0 0 S 0 91.2 659
02:58:46 15 991 0 1 SW 0 91 658
03:01:47 15 991 0 0 SW 0 91.2 661
03:04:47 15 991 0 2 S 0 91.5 662
03:07:46 15 991 0 2 S 0 91.9 667
03:10:46 15 991 0 2 SO 0 92.1 667
03:13:48 15 991 0 0 NW 0 91.9 667
03:16:48 15 991 0 0 S 0 91.9 673
03:19:45 15 991 0 0 SO 0 91.9 676
03:22:47 15 991 0 1 SO 0 92 676
03:25:47 15 991 0 3 SO 0 92.1 679
03:28:47 15 991 0 1 W 0 91.9 683
03:31:47 15 991 0 0 W 0 92.3 685
03:34:46 15 991 0 0 SO 0 92.4 676
03:37:46 15 991 0 3 S 0 92.3 668
03:40:45 15 991 0 6 S 0 92.3 661
03:43:46 15 991 0 2 S 0 92.7 667
03:46:48 15 991 0 4 S 0 92.8 672
03:49:46 15 991 0 4 S 0 93 685
03:52:46 15 992 0 1 S 0 93 691
03:55:46 15 991 0 0 S 0 93.2 689
03:58:46 15 991 0 1 S 0 93.7 691
04:01:48 15 991 0 3 SW 0 94.1 690
04:04:46 15 991 0 0 W 0 94.3 708
04:07:46 15 991 0 3 SW 0 94.6 708
04:10:45 15 991 0 3 S 0 94.8 708
04:13:46 15 991 0 2 W 0 95 700
04:16:45 15 991 0 1 S 0 95.6 702
04:19:45 15 991 0 1 O 0 96 706
04:22:46 15 991 0 0 W 0 96.5 708
04:25:45 14 992 0 0 S 0 96.6 710
04:28:47 14 991 3 3 O 0 96.6 711
04:31:44 14 991 5 0 S 0 96.6 714
04:34:47 14 991 8 2 S 0 96.6 713
04:37:48 14 991 11 0 SW 0 96.6 720
04:40:48 14 991 15 0 W 0 96.6 724
04:43:48 14 992 21 2 W 0 96.6 723
04:46:50 14 991 27 0 SW 0 96.6 720
04:49:44 14 991 34 4 S 0 96.6 724
04:52:47 14 991 41 4 SW 0 96.6 727
04:55:47 14 991 50 0 W 0 96.6 729
04:58:46 14 991 58 0 S 0 96.6 731
05:01:49 14 992 64 0 SO 0 96.6 729
05:04:47 14 991 69 1 S 0 96.6 728
05:07:49 14 992 76 0 S 0 96.6 724
05:10:47 14 991 86 2 SW 0 96.6 730
05:13:47 14 992 95 3 O 0 96.6 738
05:16:48 14 991 105 0 NO 0 96.6 732
05:19:46 14 992 115 0 S 0 96.6 741
05:22:50 14 991 125 1 SW 0 96.6 744
05:25:49 14 992 133 0 NO 0 96.6 746
05:28:49 14 991 136 5 SW 0 96.6 741
05:31:50 14 992 139 0 SO 0 96.6 739
05:34:49 14 992 141 1 S 0 96.6 739
05:37:49 14 992 143 0 SW 0 96.6 741
05:40:50 14 992 150 2 SW 0 96.6 744
05:43:48 14 992 157 1 SO 0 96.6 744
05:46:50 14 991 156 3 SO 0 96.6 738
05:49:47 14 992 155 0 S 0 96.6 740
05:52:48 14 992 160 1 S 0 96.6 740
05:55:47 14 992 164 2 S 0 96.6 745
05:58:46 14 993 163 0 S 0 96.6 744
06:01:49 14 992 165 0 SO 0 96.6 746
06:04:47 14 992 167 0 S 0 96.6 741
06:07:48 14 993 168 0 S 0 96.6 741
06:10:48 14 992 170 0 SO 0 96.6 741
06:13:46 14 993 174 1 SO 0 96.6 743
06:16:47 14 992 181 0 S 0 96.6 744
06:19:49 14 992 185 1 NW 0 96.6 756
06:22:47 15 992 188 1 S 0 96.6 759
06:25:50 15 993 190 1 S 0 96.6 758
06:28:48 15 992 195 3 SW 0 96.6 764
06:31:50 15 993 195 0 SO 0 96.6 762
06:34:48 15 993 199 3 W 0 96.6 760
06:37:48 15 993 197 1 O 0 96.6 759
06:40:49 15 993 197 0 W 0 96.2 762
06:43:46 15 993 191 3 N 0 96 770
06:46:48 15 992 193 0 SO 0 95.4 779
06:49:47 15 993 196 0 W 0 95.1 782
06:52:46 15 993 195 8 W 0 94.9 780
06:55:46 15 993 195 2 O 0 94.3 787
06:58:47 15 993 194 0 S 0 94 776
07:01:48 15 993 194 2 SW 0 93.8 779
07:04:46 15 993 196 2 S 0 93.6 785
07:07:50 15 993 197 1 SW 0 93.2 788
07:10:49 15 993 196 2 SW 0 92.9 795
07:13:49 16 994 195 2 SW 0 92.7 783
07:16:47 16 993 195 1 S 0 92.6 741
07:19:49 16 993 197 2 SO 0 91.9 738
07:22:49 16 993 198 8 SW 0 91.2 773
07:25:47 16 993 199 1 S 0 90.7 785
07:28:46 16 993 202 3 S 0 90.5 782
07:31:49 16 994 204 2 W 0 89.5 790
07:34:48 16 993 206 3 O 0 89.3 794
07:37:48 16 993 207 5 O 0 88.9 796
07:40:50 16 993 207 2 W 0 88.7 805
07:43:49 17 993 208 0 W 0 88.6 813
07:46:49 17 994 210 2 S 0 89 803
07:49:48 18 994 210 0 SW 0 87.6 799
07:52:31 16 994 211 4 W 0 80.6 787
07:55:49 18 994 212 14 SW 0 81 785
07:58:47 18 994 211 2 SW 0 80.6 785
08:01:50 18 994 210 2 NO 0 81.7 785
08:04:49 18 994 211 1 S 0 82 783
08:07:49 18 994 213 2 SO 0 82.5 781
08:10:48 17 995 214 1 NW 0 82.5 783
08:13:48 17 994 215 13 NO 0 82.5 776
08:16:48 18 994 214 0 N 0 83.7 770
08:19:52 18 994 215 3 SO 0 83.5 764
08:22:48 18 994 218 2 SO 0 82.9 761
08:25:48 18 995 218 5 S 0 81 743
08:28:50 18 995 215 4 SO 0 80.7 768
08:31:47 18 995 215 13 NO 0 81.4 761
08:34:51 17 994 216 0 SW 0 82.3 752
08:37:48 18 995 217 1 SO 0 82.9 756
08:40:48 18 995 213 3 NO 0 83.4 756
08:43:50 17 995 211 1 W 0 82 750
08:46:48 17 995 200 2 SW 0 82.1 738
08:49:48 17 995 189 0 O 0 82.2 735
08:52:49 17 995 196 0 NW 0 83.7 732
08:55:49 17 995 191 8 NW 0 84.2 732
08:58:49 17 995 199 2 SW 0 84.2 734
09:01:47 17 995 199 3 NW 0 85.1 731
09:04:50 17 995 202 4 SW 0 85.2 729
09:07:48 17 995 212 1 W 0 84.4 728
09:10:50 17 995 210 1 NW 0 84.7 714
09:13:49 17 995 211 1 NW 0 84.8 718
09:16:48 17 995 201 0 W 0 84.8 714
09:19:47 17 995 192 3 S 0 84.4 724
09:22:46 17 995 180 1 S 0 83.6 717
09:25:46 17 995 173 0 S 0 83.7 710
09:28:47 17 995 179 1 W 0 84.2 702
09:31:49 17 995 179 1 S 0 84.4 711
09:34:47 17 995 188 1 O 0 84.9 705
09:37:48 17 995 193 1 SW 0 85 713
09:40:49 17 995 197 0 SO 0 85.1 707
09:43:46 17 995 193 0 S 0 85.8 711
09:46:47 17 995 196 1 W 0 85.7 708
09:49:48 17 995 198 1 S 0 85.4 701
09:52:51 17 995 198 2 SO 0 85.2 697
09:55:49 17 995 200 0 NO 0 84.8 691
09:58:48 17 995 196 6 NO 0 85.1 689
10:01:49 17 995 198 0 SW 0 84.4 691
10:04:50 17 995 203 2 O 0 84.3 686
10:07:47 17 995 213 1 SO 0 84.7 685
10:10:49 17 995 220 0 SW 0 84.8 686
10:13:48 17 995 215 1 SW 0 85.6 688
10:16:49 17 995 203 12 SW 0 85.4 682
10:19:50 18 995 179 4 NW 0 83.8 686
10:22:49 17 995 192 3 0 82.5 680
10:25:47 17 995 189 0 W 0 82.3 682
10:28:50 17 995 207 2 SW 0 82.2 673
10:31:46 17 995 212 3 O 0 82.6 670
10:34:49 17 995 207 3 W 0 83.9 668
10:37:48 17 995 204 8 S 0 81.7 668
10:40:47 17 995 207 0 S 0 81.6 662
10:43:49 17 995 211 3 SO 0 82.6 663
10:46:49 17 995 215 1 S 0 83.2 659
10:49:48 17 996 219 0 NW 0 83.6 658
10:52:47 17 995 223 4 W 0 83.9 655
10:55:48 17 995 222 7 SO 0 83.9 653
10:58:49 18 996 219 0 O 0 82.2 656
11:01:49 18 996 219 2 NW 0 81.7 657
11:04:48 18 996 220 1 O 0 80.7 653
11:07:49 19 995 210 1 SO 0 80.6 649
11:10:49 19 995 206 0 O 0 79.5 650
11:13:49 19 996 198 3 O 0 78.9 649
11:16:49 18 995 200 0 NW 0 78.2 649
11:19:47 18 995 207 1 O 0 78.9 642
11:22:47 18 995 213 1 SO 0 79.3 639
11:25:48 18 995 220 1 O 0 79.1 638
11:28:48 18 995 226 3 SO 0 79.9 643
11:31:46 18 995 227 2 NW 0 80.3 641
11:34:47 19 995 225 1 NW 0 79 641
11:37:49 20 996 225 4 SW 0 73.3 633
11:40:47 19 995 228 2 W 0 72.6 641
11:43:46 19 995 227 4 O 0 71.7 629
11:46:48 20 995 227 4 W 0 73.3 630
11:49:49 20 996 228 1 W 0 73.8 631
11:52:48 20 996 228 3 SW 0 73.5 632
11:55:48 20 996 227 3 W 0 73.4 638
11:58:48 20 995 230 2 S 0 72.6 633
12:01:50 21 995 231 7 SO 0 72 630
12:04:48 22 996 231 0 SW 0 71.8 624
12:07:53 22 996 229 2 NW 0 68.6 620
12:10:47 22 995 228 2 S 0 67.5 617
12:13:47 22 995 225 2 N 0 66.3 612
12:16:51 22 996 225 0 W 0 66.1 611
12:19:48 22 996 221 1 W 0 65.9 615
12:22:48 22 996 225 4 N 0 65.7 609
12:25:48 22 996 229 1 S 0 65.9 614
12:28:47 22 996 228 1 W 0 66.5 606
12:31:50 22 996 227 3 NW 0 66.5 609
12:34:48 22 996 223 3 W 0 65.1 609
12:37:48 22 996 227 1 W 0 65.7 606
12:40:50 21 996 226 1 SW 0 67.8 603
12:43:47 21 996 227 3 W 0 68.1 600
12:46:50 22 996 226 1 SO 0 68.9 609
12:49:49 23 996 225 5 W 0 68.1 606
12:52:47 23 996 228 3 SW 0 67.1 600
12:55:46 24 996 230 1 N 0 65.4 605
12:58:48 25 996 230 7 S 0 55.8 597
13:01:48 25 996 231 3 SW 0 55.4 597
13:04:51 25 996 230 1 NW 0 58.8 589
13:07:50 25 996 229 1 NO 0 58.7 594
13:10:48 25 996 229 1 SW 0 53.1 594
13:13:50 24 996 223 2 NO 0 52.8 597
13:16:48 23 997 219 1 W 0 55.4 592
13:19:46 22 997 226 1 O 0 59.4 598
13:22:46 22 997 231 2 0 60.6 589
13:25:49 22 996 231 7 NW 0 62.5 596
13:28:48 22 996 230 4 SW 0 63.1 597
13:31:49 23 996 232 0 W 0 63.8 601
13:34:47 24 996 231 9 SW 0 55.9 597
13:37:49 25 996 231 4 W 0 56.3 589
13:40:47 26 996 226 4 S 0 57.4 586
13:43:49 25 997 226 5 W 0 53.2 588
13:46:49 24 997 232 2 SO 0 55.9 589
13:49:49 24 997 228 2 SO 0 57.1 586
13:52:48 24 997 229 1 SW 0 57.8 582
13:55:50 25 996 234 1 NW 0 58.1 582
13:58:48 25 997 236 1 S 0 57.4 578
14:01:47 26 996 235 4 SW 0 55.9 585
14:04:48 27 996 233 5 S 0 50.3 582
14:07:46 26 997 229 4 W 0 49.4 582
14:10:49 26 996 232 2 SO 0 51.5 577
14:13:47 25 996 237 6 W 0 52.4 577
14:16:47 25 997 226 5 0 49.8 576
14:19:48 25 997 229 1 S 0 52.5 577
14:22:46 24 997 239 3 S 0 53 573
14:25:49 25 996 233 2 W 0 54.5 568
14:28:47 25 996 240 1 S 0 54.4 577
14:31:49 25 997 228 5 S 0 54.4 579
14:34:48 25 997 233 1 SW 0 54.1 574
14:37:46 25 997 237 4 SW 0 53.4 571
14:40:50 25 998 239 5 NO 0 52.9 559
14:43:45 25 996 231 5 S 0 51.9 564
14:46:47 25 997 230 2 N 0 53.6 571
14:49:48 24 997 230 3 W 0 54.6 566
14:52:47 24 997 241 7 NW 0 55.6 564
14:55:48 25 998 222 3 SW 0 55.7 562
14:58:48 25 997 226 2 W 0 54.4 559
15:01:48 24 997 228 0 NW 0 54.5 554
15:04:49 24 997 227 2 NW 0 55.8 559
15:07:49 24 998 219 0 N 0 58.2 562
15:10:49 24 997 223 4 SO 0 58.1 559
15:13:50 23 998 228 2 SW 0 57.2 557
15:16:48 23 998 228 1 W 0 58.1 563
15:19:49 22 998 232 5 NW 0 59 565
15:22:48 21 998 234 2 N 0 62 559
15:25:47 21 998 243 5 N 0 62.2 553
15:28:48 21 998 244 5 NW 0 62.9 547
15:31:47 21 998 239 8 W 0 62.1 550
15:34:48 22 998 244 5 N 0 62.4 539
15:37:51 22 998 243 10 NW 0 59.7 533
15:40:48 22 998 243 10 SW 0 58.9 524
15:43:49 22 998 242 3 W 0 60.4 521
15:46:47 23 998 243 5 S 0 60.1 521
15:49:49 23 998 244 4 NW 0 58.7 525
15:52:48 23 998 244 1 NW 0 58.1 527
15:55:51 24 998 244 6 NW 0 56.9 524
15:58:48 24 998 245 4 NW 0 52.1 524
16:01:47 24 998 245 7 S 0 51.6 527
16:04:49 24 998 244 8 SO 0 51.1 523
16:07:48 23 998 246 4 NW 0 50.2 521
16:10:49 23 998 245 7 N 0 51.8 516
16:13:50 23 998 245 7 NW 0 52.5 516
16:16:46 23 998 234 6 N 0 51.6 512
16:19:50 22 998 232 5 W 0 56 507
16:22:47 22 998 234 2 S 0 56.4 501
16:25:48 22 998 237 0 NW 0 57.3 504
16:28:47 22 998 247 0 W 0 58.9 501
16:31:50 24 998 247 2 SO 0 56.8 503
16:34:50 25 998 236 2 SW 0 53.4 503
16:37:47 25 998 231 1 O 0 52.8 503
16:40:49 24 998 228 3 NW 0 52.6 501
16:43:51 24 998 226 2 NW 0 54.6 543
16:46:51 23 998 218 2 SW 0 55.7 550
16:49:50 23 998 210 4 NW 0 56.3 553
16:52:48 23 998 208 0 NO 0 57.2 548
16:55:51 22 998 213 1 SW 0 59.2 550
16:58:48 22 998 219 0 W 0 59.4 554
17:01:50 22 998 224 1 S 0 60.5 553
17:04:48 22 998 231 2 O 0 61.2 553
17:07:50 22 998 248 2 S 0 60.4 545
17:10:50 24 998 245 2 N 0 59 550
17:13:48 26 998 247 0 W 0 52.7 538
17:16:50 27 999 235 2 N 0 47.6 548
17:19:52 26 998 228 2 NO 0 48.6 548
17:22:48 25 998 232 1 SW 0 49.4 548
17:25:48 25 998 233 9 SW 0 50.7 539
17:28:48 24 998 232 2 W 0 53.1 542
17:31:49 23 998 236 4 NW 0 55.1 542
17:34:48 23 998 236 1 NW 0 56.5 541
17:37:48 23 998 237 0 O 0 57.4 547
17:40:49 24 998 246 1 SO 0 57.8 542
17:43:29 22 998 246 2 0 46.1 544
17:46:48 26 998 229 0 O 0 53.8 542
17:49:51 25 998 247 2 NW 0 53.5 538
17:52:48 26 998 247 6 NW 0 47.4 536
17:55:50 25 998 229 16 NW 0 45.9 536
17:58:49 23 998 244 4 NW 0 51 536
18:01:48 22 998 241 4 O 0 51.9 530
18:04:48 23 998 246 9 NW 0 53.5 531
18:07:50 23 998 246 5 0 51.9 528
18:10:51 24 998 238 4 NW 0 51.6 524
18:13:48 23 998 235 2 N 0 52.3 524
18:16:49 23 998 245 2 NW 0 55.3 527
18:19:46 24 999 247 2 W 0 56.4 524
18:22:47 26 998 241 5 W 0 51.4 521
18:25:47 25 998 246 4 S 0 48.4 524
18:28:49 25 998 246 4 N 0 47.1 527
18:31:51 24 998 232 5 NW 0 48 527
18:34:33 24 998 233 3 NW 0 40 530
18:37:50 24 998 244 0 NW 0 52.3 521
18:40:52 25 999 246 1 NW 0 52.5 521
18:43:51 26 998 246 2 N 0 49.9 521
18:46:47 27 998 223 3 W 0 47.3 524
18:49:47 25 999 215 2 NW 0 47.1 515
18:52:49 24 998 212 0 NW 0 49.8 510
18:55:48 23 998 212 0 NO 0 50.9 512
18:58:49 23 998 218 2 NW 0 51.8 513
19:01:49 22 998 223 3 NW 0 52.1 510
19:04:49 22 998 217 3 S 0 54.6 511
19:07:49 22 999 196 0 O 0 55.1 518
19:10:48 21 999 181 0 N 0 55.7 516
19:13:48 21 999 203 1 S 0 56.3 515
19:16:47 21 999 210 1 NW 0 57.5 511
19:19:48 21 998 203 3 W 0 58.2 515
19:22:47 21 999 183 0 O 0 58.1 521
19:25:48 21 999 177 4 NW 0 57.9 523
19:28:49 21 999 169 4 W 0 57.8 522
19:31:51 21 998 149 1 NW 0 58 521
19:34:49 20 999 126 2 NW 0 59.1 524
19:37:49 20 999 108 2 NW 0 59.6 530
19:40:47 20 999 106 3 W 0 60.3 527
19:43:49 20 999 112 4 W 0 60.7 519
19:46:48 20 1000 131 4 W 0 60.7 515
19:49:49 19 999 155 8 SW 0 62.8 516
19:52:31 19 999 176 1 S 0 52.6 521
19:55:49 19 1000 187 4 NW 0 67.6 524
19:58:48 18 1000 194 1 SW 0 69.9 518
20:01:52 18 1000 198 0 NW 0 70.6 519
20:04:48 18 1000 205 1 O 0 70.1 512
20:07:48 18 1000 206 2 NW 0 70.3 509
20:10:49 19 999 206 0 NW 0 70.1 510
20:13:48 19 1001 209 2 SO 0 71.1 515
20:16:51 19 1000 207 0 SW 0 71.4 515
20:19:48 19 1000 196 0 S 0 70.8 515
20:22:47 19 1000 193 0 S 0 70.9 513
20:25:49 19 1000 189 0 SO 0 70.8 521
20:28:48 19 1000 185 0 SO 0 70.7 518
20:31:49 18 1000 183 0 SO 0 71.2 519
20:34:49 18 1000 180 0 SO 0 71.2 510
20:37:49 18 1000 176 0 S 0 71.8 507
20:40:50 18 1000 173 0 SW 0 72.2 500
20:43:49 17 1000 172 0 SO 0 73.1 506
20:46:47 17 1001 169 0 SO 0 73.5 515
20:49:48 17 1001 166 0 S 0 74.6 518
20:52:48 17 1000 161 1 S 0 74.8 515
20:55:47 17 1001 155 1 SO 0 75.1 512
20:58:48 16 1001 150 0 S 0 75.5 510
21:01:49 16 1001 147 0 SO 0 76 504
21:04:49 16 1001 143 0 SO 0 76.2 512
21:07:50 16 1001 140 0 SO 0 76.5 515
21:10:49 16 1001 135 0 SO 0 76.8 513
21:13:48 16 1000 127 0 SO 0 77.3 513
21:16:48 16 1001 120 0 SO 0 77.5 512
21:19:47 15 1002 114 0 SO 0 77.8 511
21:22:48 15 1001 107 0 SO 0 78.5 517
21:25:47 15 1000 100 0 SO 0 79.2 514
21:28:47 15 1001 93 0 SO 0 79 509
21:31:49 15 1002 86 0 SO 0 79.7 512
21:34:49 15 1002 77 0 SO 0 80 509
21:37:50 15 1002 69 0 SO 0 80.1 510
21:40:52 14 1002 60 0 SO 0 80.3 507
21:43:47 14 1002 52 0 SO 0 80.8 509
21:46:47 14 1002 44 0 SO 0 82.4 507
21:49:49 14 1002 37 0 SO 0 82.4 500
21:52:47 14 1002 18 0 SO 0 81.9 466
21:55:46 14 1002 15 1 SO 0 81.8 445
21:58:51 14 1002 12 0 SO 0 82.2 432
22:01:51 14 1002 10 0 SO 0 82.4 431
22:04:49 14 1002 9 0 SO 0 82.8 436
22:07:51 14 1002 10 0 SO 0 83.4 436
22:10:49 14 1002 7 0 SO 0 83.2 439
22:13:49 13 1002 6 0 SO 0 83.5 436
22:16:47 13 1002 5 0 SO 0 83.6 427
22:19:48 13 1002 4 0 SO 0 83.5 422
22:22:47 13 1002 3 0 SO 0 83.7 418
22:25:48 13 1002 3 0 SO 0 85 427
22:28:48 13 1002 3 0 SO 0 84.6 434
22:31:49 13 1002 0 0 SO 0 84.9 445
22:34:48 13 1002 0 0 SO 0 85.4 451
22:37:49 13 1002 0 0 SO 0 85.5 463
22:40:47 13 1002 0 0 SO 0 85.5 483
22:43:49 13 1002 0 0 SO 0 86.2 491
22:46:47 13 1002 0 0 SO 0 86.3 492
22:49:50 13 1002 0 0 SO 0 86.5 463
22:52:49 13 1002 0 0 SO 0 86.5 436
22:55:48 13 1002 0 0 SO 0 86.3 436
22:58:46 13 1002 0 0 SO 0 86.9 436
23:01:46 13 1002 0 0 S 0 86.8 442
23:04:48 14 1002 0 0 S 0 86.9 442
23:07:48 14 1002 14 0 S 0 86.7 439
23:10:48 14 1002 0 0 S 0 86.6 439
23:13:47 14 1003 0 0 S 0 86.6 457
23:16:48 14 1002 0 0 S 0 86 462
23:19:47 14 1002 0 0 S 0 85.3 485
23:22:50 14 1002 0 0 S 0 85.2 501
23:25:48 14 1002 0 0 S 0 85.4 516
23:28:46 14 1002 0 0 S 0 85.6 519
23:31:46 14 1002 0 0 S 0 85.4 517
23:34:48 14 1003 0 0 S 0 85.5 519
23:37:47 14 1003 0 0 S 0 85.4 516
23:40:45 14 1003 0 0 S 0 85.5 515
23:43:46 14 1003 0 0 S 0 86.4 521
23:46:48 14 1002 0 0 S 0 86.4 525
23:49:47 14 1002 0 0 S 0 86.7 527
23:52:47 14 1002 0 1 SO 0 87.1 533
23:55:48 13 1003 0 0 SO 0 87.6 534
23:58:48 13 1002 0 0 SO 0 87.3 536

Letzte Änderung : 04-Jan-2022
Copyright Jens Köhler, Wolfsburg, Obere Dorfstraße 10d